Stations météo

réclame
Mon MeteoGroup
Braemar, Grande-Bretagne (99089): Température de l'air & dewpoint: 04.07.2020 13:00:00 - 10.07.2020 13:00:00 (BST)Braemar, Grande-Bretagne (99089): Température de l'air -20cm & Température de l'air -100cm: 04.07.2020 13:00:00 - 10.07.2020 13:00:00 (BST)Braemar, Grande-Bretagne (99089): Quantités de précipitations: 04.07.2020 13:00:00 - 10.07.2020 13:00:00 (BST)
Date & Time tt [°C] td [°C] tt -20cm [°C] tt -100cm [°C] rr [mm]
10.07.2020 13:00:00 - - - - -
10.07.2020 12:00:00 - - - - -
10.07.2020 11:00:00 - - - - -
10.07.2020 10:00:00 12,4 5,5 13,4 12,4 0,0
10.07.2020 09:00:00 10,5 5,5 - - 0,0
10.07.2020 08:00:00 9,3 7,6 - - 0,0
10.07.2020 07:00:00 8,2 7,5 - - 0,0
10.07.2020 06:00:00 7,7 7,3 - - 0,0
10.07.2020 05:00:00 7,6 7,1 - - 0,0
10.07.2020 04:00:00 8,0 7,6 - - 0,2
10.07.2020 03:00:00 8,4 8,1 - - 0,0
10.07.2020 02:00:00 8,7 8,3 - - 0,0
10.07.2020 01:00:00 8,6 8,1 - - 0,0
10.07.2020 00:00:00 8,8 8,3 - - 0,0
09.07.2020 23:00:00 9,2 8,6 - - 0,2
09.07.2020 22:00:00 9,9 9,1 - - 0,2
09.07.2020 21:00:00 10,3 9,1 - - 0,2
09.07.2020 20:00:00 10,2 9,4 - - 0,6
09.07.2020 19:00:00 9,9 8,7 - - 4,6
09.07.2020 18:00:00 10,9 9,7 - - 1,4
09.07.2020 17:00:00 11,8 10,3 - - 0,0
09.07.2020 16:00:00 11,7 9,7 - - 1,4
09.07.2020 15:00:00 13,3 8,6 - - 0,0
09.07.2020 14:00:00 15,1 11,0 - - 0,4
09.07.2020 13:00:00 14,6 9,1 - - 0,2
09.07.2020 12:00:00 12,4 9,2 - - 0,6
09.07.2020 11:00:00 13,2 11,7 - - 1,4
09.07.2020 10:00:00 14,4 9,7 13,0 12,4 0,0
09.07.2020 09:00:00 11,9 8,7 - - 0,0
09.07.2020 08:00:00 9,9 8,5 - - 0,0
09.07.2020 07:00:00 9,2 8,4 - - 0,0
09.07.2020 06:00:00 8,6 8,2 - - 0,2
09.07.2020 05:00:00 8,4 7,8 - - 0,0
09.07.2020 04:00:00 8,7 8,0 - - 0,0
09.07.2020 03:00:00 8,9 8,1 - - 0,2
09.07.2020 02:00:00 9,2 7,9 - - 0,0
09.07.2020 01:00:00 9,6 7,6 - - 0,0
09.07.2020 00:00:00 9,8 7,5 - - 0,0
08.07.2020 23:00:00 10,2 7,2 - - 0,0
08.07.2020 22:00:00 10,9 7,1 - - 0,0
08.07.2020 21:00:00 11,6 7,1 - - 0,0
08.07.2020 20:00:00 12,0 7,2 - - 0,0
08.07.2020 19:00:00 12,5 7,2 - - 0,0
08.07.2020 18:00:00 13,3 7,5 - - 0,0
08.07.2020 17:00:00 12,9 6,9 - - 0,0
08.07.2020 16:00:00 12,7 6,9 - - 0,0
08.07.2020 15:00:00 12,3 7,2 - - 0,0
08.07.2020 14:00:00 13,4 6,5 - - 0,0
08.07.2020 13:00:00 11,8 7,8 - - 0,0
08.07.2020 12:00:00 12,1 7,4 - - 0,0
08.07.2020 11:00:00 10,7 7,9 - - 0,0
08.07.2020 10:00:00 9,8 8,6 13,0 12,4 0,8
08.07.2020 09:00:00 9,1 7,3 - - 0,2
08.07.2020 08:00:00 8,5 6,4 - - 0,0
08.07.2020 07:00:00 8,0 7,3 - - 0,0
08.07.2020 06:00:00 7,4 7,0 - - 0,0
08.07.2020 05:00:00 7,2 6,8 - - 0,0
08.07.2020 04:00:00 7,1 6,7 - - 0,0
08.07.2020 03:00:00 7,5 6,7 - - 0,0
08.07.2020 02:00:00 7,7 6,7 - - 0,0
08.07.2020 01:00:00 8,1 7,0 - - 0,0
08.07.2020 00:00:00 8,4 7,7 - - 0,0
07.07.2020 23:00:00 8,7 8,0 - - 0,4
07.07.2020 22:00:00 9,0 8,0 - - 1,2
07.07.2020 21:00:00 9,5 8,1 - - 0,6
07.07.2020 20:00:00 10,4 7,9 - - 0,0
07.07.2020 19:00:00 10,5 7,6 - - 0,0
07.07.2020 18:00:00 11,5 9,3 - - 0,8
07.07.2020 17:00:00 10,8 8,4 - - 2,6
07.07.2020 16:00:00 12,2 8,4 - - 0,2
07.07.2020 15:00:00 11,8 8,4 - - 1,4
07.07.2020 14:00:00 13,8 6,9 - - 0,0
07.07.2020 13:00:00 11,6 6,2 - - 0,0
07.07.2020 12:00:00 12,1 5,5 - - 0,0
07.07.2020 11:00:00 12,5 5,8 - - 0,0
07.07.2020 10:00:00 11,7 5,5 12,7 12,4 0,0
07.07.2020 09:00:00 10,7 6,0 - - 0,0
07.07.2020 08:00:00 9,9 5,4 - - 0,0
07.07.2020 07:00:00 9,2 5,6 - - 0,0
07.07.2020 06:00:00 8,2 5,1 - - 0,0
07.07.2020 05:00:00 8,5 5,8 - - 0,0
07.07.2020 04:00:00 8,7 5,8 - - 0,0
07.07.2020 03:00:00 9,3 5,5 - - 0,0
07.07.2020 02:00:00 9,3 5,7 - - 0,0
07.07.2020 01:00:00 9,4 5,5 - - 0,0
07.07.2020 00:00:00 9,3 6,3 - - 0,0
06.07.2020 23:00:00 9,4 5,9 - - 0,0
06.07.2020 22:00:00 9,7 5,4 - - 0,0
06.07.2020 21:00:00 10,4 5,2 - - 0,0
06.07.2020 20:00:00 10,9 4,4 - - 0,0
06.07.2020 19:00:00 11,5 4,9 - - 0,0
06.07.2020 18:00:00 13,9 6,3 - - 0,0
06.07.2020 17:00:00 13,4 5,1 - - 0,0
06.07.2020 16:00:00 13,0 5,5 - - 0,0
06.07.2020 15:00:00 12,9 6,5 - - 0,0
06.07.2020 14:00:00 13,1 5,4 - - 0,0
06.07.2020 13:00:00 11,9 4,3 - - 0,0
06.07.2020 12:00:00 11,2 4,9 - - 0,0
06.07.2020 11:00:00 10,4 4,7 - - 0,0
06.07.2020 10:00:00 10,7 5,5 12,7 12,4 0,2
06.07.2020 09:00:00 9,6 5,9 - - 0,6
06.07.2020 08:00:00 10,5 6,0 - - 0,0
06.07.2020 07:00:00 9,5 5,2 - - 0,2
06.07.2020 06:00:00 9,0 6,1 - - 0,6
06.07.2020 05:00:00 9,1 6,1 - - 0,0
06.07.2020 04:00:00 9,4 5,0 - - 0,2
06.07.2020 03:00:00 8,7 6,6 - - 0,2
06.07.2020 02:00:00 8,1 6,3 - - 0,0
06.07.2020 01:00:00 8,0 6,6 - - 0,4
06.07.2020 00:00:00 8,4 6,3 - - 0,0
05.07.2020 23:00:00 9,1 6,1 - - 0,0
05.07.2020 22:00:00 9,3 6,1 - - 0,0
05.07.2020 21:00:00 9,8 6,4 - - 0,4
05.07.2020 20:00:00 9,8 7,0 - - 0,6
05.07.2020 19:00:00 11,4 5,5 - - 0,0
05.07.2020 18:00:00 10,8 7,1 - - 0,2
05.07.2020 17:00:00 12,5 6,3 - - 0,0
05.07.2020 16:00:00 11,6 7,0 - - 0,4
05.07.2020 15:00:00 10,2 7,8 - - 0,8
05.07.2020 14:00:00 12,7 6,6 - - 0,2
05.07.2020 13:00:00 12,5 6,5 - - 0,0
05.07.2020 12:00:00 11,7 5,7 - - 0,0
05.07.2020 11:00:00 11,6 5,5 - - 0,0
05.07.2020 10:00:00 11,5 6,9 12,9 12,5 0,0
05.07.2020 09:00:00 10,3 6,5 - - 0,0
05.07.2020 08:00:00 10,2 6,5 - - 0,0
05.07.2020 07:00:00 9,4 8,2 - - 0,0
05.07.2020 06:00:00 9,0 7,5 - - 0,0
05.07.2020 05:00:00 9,3 7,1 - - 0,2
05.07.2020 04:00:00 9,8 9,4 - - 0,8
05.07.2020 03:00:00 9,8 9,5 - - 0,4
05.07.2020 02:00:00 9,8 9,5 - - 0,8
05.07.2020 01:00:00 9,9 9,5 - - 3,0
05.07.2020 00:00:00 9,9 9,5 - - 3,6
04.07.2020 23:00:00 10,1 9,6 - - 4,4
04.07.2020 22:00:00 10,6 9,5 - - 1,8
04.07.2020 21:00:00 12,3 8,0 - - 0,0
04.07.2020 20:00:00 12,9 8,4 - - 0,0
04.07.2020 19:00:00 13,8 7,4 - - 0,0
04.07.2020 18:00:00 14,6 8,4 - - 0,0
04.07.2020 17:00:00 13,9 8,2 - - 0,0
04.07.2020 16:00:00 13,5 7,6 - - 0,0
04.07.2020 15:00:00 13,6 8,0 - - 0,0
04.07.2020 14:00:00 13,1 8,5 - - 0,0
04.07.2020 13:00:00 12,8 8,1 - - 0,0

tt = Température de l'air
td = dewpoint
tt -20cm = Température de l'air -20cm
tt -100cm = Température de l'air -100cm
rr = Quantités de précipitations

stations d'obs. à proximité